EW9411 Weather Reports


Display with metric or nautical units.
time (UTC)temp
F
wind
direction
speed
MPH
gust
MPH
rain 1hr
in
rain 24hr
in
rain mn
in
humidity
%
barometer
mb
20260505010845 64 223 0.0 1.0 0.00 0.00 0.00 54 1008.6
20260505010643 64 223 0.0 2.0 0.00 0.00 0.00 53 1008.6
20260505010335 64 223 0.0 2.0 0.00 0.00 0.00 53 1008.6
20260505010151 64 223 0.0 2.0 0.00 0.00 0.00 53 1008.5
20260505005843 64 223 1.0 3.0 0.00 0.00 0.00 52 1008.5
20260505005703 65 223 1.0 3.0 0.00 0.00 0.00 51 1008.5
20260505005351 65 223 2.0 3.0 0.00 0.00 0.00 51 1008.5
20260505005151 65 223 1.0 4.0 0.00 0.00 0.00 50 1008.4
20260505004842 66 223 1.0 4.0 0.00 0.00 0.00 49 1008.4
20260505004639 66 223 2.0 4.0 0.00 0.00 0.00 48 1008.3
20260505004407 66 223 2.0 4.0 0.00 0.00 0.00 48 1008.2
20260505004209 67 223 1.0 3.0 0.00 0.00 0.00 48 1008.2
20260505003855 67 223 1.0 3.0 0.00 0.00 0.00 48 1008.2
20260505003657 67 223 1.0 8.0 0.00 0.00 0.00 48 1008.2
20260505003342 67 223 2.0 8.0 0.00 0.00 0.00 48 1008.1
20260505003139 67 223 2.0 8.0 0.00 0.00 0.00 47 1008.1
20260505002850 67 223 4.0 8.0 0.00 0.00 0.00 47 1008.1
20260505002647 67 209 3.0 6.0 0.00 0.00 0.00 47 1008.0
20260505002338 67 209 2.0 6.0 0.00 0.00 0.00 46 1008.0
20260505002136 67 209 3.0 6.0 0.00 0.00 0.00 46 1008.0
20260505001847 68 200 2.0 4.0 0.00 0.00 0.00 46 1007.9
20260505001645 68 200 3.0 4.0 0.00 0.00 0.00 46 1007.8
20260505001354 68 198 3.0 4.0 0.00 0.00 0.00 46 1007.9
20260505001212 68 187 2.0 4.0 0.00 0.00 0.00 46 1007.8
20260505000903 68 187 2.0 5.0 0.00 0.00 0.00 45 1007.7
20260505000700 68 187 2.0 5.0 0.00 0.00 0.00 45 1007.8
20260505000351 69 184 3.0 5.0 0.00 0.00 0.00 44 1007.7
20260505000146 69 198 2.0 4.0 0.00 0.00 0.00 44 1007.7
20260504235837 69 198 2.0 5.0 0.00 0.00 0.00 44 1007.6
20260504235634 69 198 2.0 5.0 0.00 0.00 0.00 44 1007.6
20260504235402 69 197 3.0 8.0 0.00 0.00 0.00 44 1007.5
20260504235143 69 198 3.0 8.0 0.00 0.00 0.00 44 1007.5
20260504234910 69 233 4.0 11.0 0.00 0.00 0.00 44 1007.4
20260504234649 69 219 4.0 11.0 0.00 0.00 0.00 43 1007.4
20260504234335 70 214 2.0 11.0 0.00 0.00 0.00 43 1007.4
20260504234138 70 212 4.0 11.0 0.00 0.00 0.00 42 1007.3
20260504233904 70 198 3.0 7.0 0.00 0.00 0.00 42 1007.2
20260504233642 70 193 4.0 7.0 0.00 0.00 0.00 43 1007.1
20260504233332 70 211 4.0 7.0 0.00 0.00 0.00 42 1007.1
20260504233151 70 221 5.0 7.0 0.00 0.00 0.00 42 1007.1
20260504232842 70 191 4.0 7.0 0.00 0.00 0.00 42 1007.1
20260504232639 70 206 5.0 7.0 0.00 0.00 0.00 42 1007.0
20260504232351 70 209 4.0 8.0 0.00 0.00 0.00 41 1007.1
20260504232149 70 222 5.0 8.0 0.00 0.00 0.00 41 1007.0
20260504231839 70 212 5.0 8.0 0.00 0.00 0.00 42 1007.0
20260504231636 71 219 5.0 10.0 0.00 0.00 0.00 41 1007.0
20260504231347 71 223 5.0 10.0 0.00 0.00 0.00 41 1007.0
20260504231205 71 225 6.0 10.0 0.00 0.00 0.00 41 1007.0
20260504230834 71 222 6.0 10.0 0.00 0.00 0.00 41 1006.9
20260504230633 71 227 4.0 12.0 0.00 0.00 0.00 42 1006.9
20260504230345 71 229 5.0 12.0 0.00 0.00 0.00 41 1006.9
20260504230204 71 239 5.0 12.0 0.00 0.00 0.00 40 1006.9
20260504225833 71 217 7.0 12.0 0.00 0.00 0.00 41 1006.8
20260504225652 71 229 7.0 14.0 0.00 0.00 0.00 40 1006.8
20260504225343 71 237 5.0 14.0 0.00 0.00 0.00 40 1006.9
20260504225202 71 229 5.0 14.0 0.00 0.00 0.00 40 1006.8
20260504224848 71 217 9.0 14.0 0.00 0.00 0.00 40 1006.8
20260504224650 71 199 7.0 12.0 0.00 0.00 0.00 40 1006.8
20260504224357 71 195 4.0 12.0 0.00 0.00 0.00 40 1006.8
20260504224138 71 234 5.0 12.0 0.00 0.00 0.00 40 1006.8
20260504223846 71 198 6.0 11.0 0.00 0.00 0.00 39 1006.8
20260504223708 71 219 7.0 14.0 0.00 0.00 0.00 40 1006.8
20260504223335 71 208 5.0 14.0 0.00 0.00 0.00 40 1006.8
20260504223155 71 258 8.0 18.0 0.00 0.00 0.00 39 1006.8
20260504222844 72 248 9.0 18.0 0.00 0.00 0.00 39 1006.9
20260504222642 72 238 7.0 18.0 0.00 0.00 0.00 40 1006.9
20260504222332 72 242 6.0 17.0 0.00 0.00 0.00 39 1006.8
20260504222132 72 223 6.0 17.0 0.00 0.00 0.00 39 1006.9
20260504221843 72 250 8.0 17.0 0.00 0.00 0.00 39 1006.9
20260504221640 72 227 11.0 17.0 0.00 0.00 0.00 38 1006.9
20260504221348 72 236 7.0 19.0 0.00 0.00 0.00 39 1006.9
20260504221147 72 242 5.0 19.0 0.00 0.00 0.00 39 1006.9
20260504220838 72 223 10.0 18.0 0.00 0.00 0.00 39 1006.8
20260504220656 72 214 8.0 18.0 0.00 0.00 0.00 38 1006.9
20260504220345 72 206 11.0 18.0 0.00 0.00 0.00 38 1006.9
20260504220143 72 236 11.0 18.0 0.00 0.00 0.00 38 1006.9
20260504215835 72 185 7.0 16.0 0.00 0.00 0.00 39 1007.0
20260504215633 72 195 8.0 16.0 0.00 0.00 0.00 39 1007.0
20260504215344 72 222 8.0 16.0 0.00 0.00 0.00 39 1007.0
20260504215204 72 158 9.0 16.0 0.00 0.00 0.00 38 1006.9
20260504214834 72 156 9.0 16.0 0.00 0.00 0.00 38 1007.1
20260504214632 73 242 6.0 12.0 0.00 0.00 0.00 39 1007.1
20260504214340 73 221 7.0 12.0 0.00 0.00 0.00 38 1007.1
20260504214141 73 243 7.0 12.0 0.00 0.00 0.00 38 1007.1
20260504213908 73 187 5.0 11.0 0.00 0.00 0.00 39 1007.1
20260504213348 73 220 5.0 14.0 0.00 0.00 0.00 39 1007.2
20260504213145 73 224 8.0 19.0 0.00 0.00 0.00 38 1007.3
20260504212836 73 242 7.0 22.0 0.00 0.00 0.00 38 1007.3
20260504212656 73 239 9.0 22.0 0.00 0.00 0.00 38 1007.3
20260504212345 73 196 12.0 22.0 0.00 0.00 0.00 37 1007.2
20260504212144 73 196 5.0 16.0 0.00 0.00 0.00 39 1007.2
20260504211834 73 174 4.0 16.0 0.00 0.00 0.00 39 1007.3
20260504211632 73 206 6.0 16.0 0.00 0.00 0.00 37 1007.4
20260504211341 73 222 8.0 15.0 0.00 0.00 0.00 38 1007.4
20260504211139 73 240 6.0 14.0 0.00 0.00 0.00 37 1007.3
20260504210851 73 190 7.0 14.0 0.00 0.00 0.00 39 1007.4
20260504210649 72 177 7.0 14.0 0.00 0.00 0.00 38 1007.3
20260504210340 73 240 7.0 14.0 0.00 0.00 0.00 38 1007.3
20260504210137 73 218 8.0 14.0 0.00 0.00 0.00 37 1007.4
20260504205847 73 253 8.0 16.0 0.00 0.00 0.00 37 1007.3
20260504205646 73 223 5.0 16.0 0.00 0.00 0.00 38 1007.4
20260504205337 73 222 8.0 16.0 0.00 0.00 0.00 37 1007.4
20260504205135 73 222 8.0 16.0 0.00 0.00 0.00 37 1007.3
20260504204845 73 223 10.0 16.0 0.00 0.00 0.00 36 1007.4
20260504204644 73 207 7.0 16.0 0.00 0.00 0.00 39 1007.3
20260504204336 73 241 6.0 16.0 0.00 0.00 0.00 38 1007.3
20260504204133 73 191 8.0 14.0 0.00 0.00 0.00 36 1007.3
20260504203844 73 254 7.0 15.0 0.00 0.00 0.00 36 1007.3
20260504203643 73 195 7.0 15.0 0.00 0.00 0.00 37 1007.3
20260504203334 73 193 9.0 15.0 0.00 0.00 0.00 37 1007.3
20260504203133 73 207 7.0 15.0 0.00 0.00 0.00 37 1007.3
20260504202840 73 266 6.0 17.0 0.00 0.00 0.00 39 1007.3
20260504202640 73 189 8.0 17.0 0.00 0.00 0.00 37 1007.4
20260504202346 73 240 7.0 17.0 0.00 0.00 0.00 36 1007.3
20260504202210 73 229 9.0 17.0 0.00 0.00 0.00 36 1007.3
20260504201835 73 224 8.0 13.0 0.00 0.00 0.00 37 1007.4
20260504201637 73 245 6.0 13.0 0.00 0.00 0.00 37 1007.3
20260504201339 73 220 8.0 16.0 0.00 0.00 0.00 36 1007.4
20260504201140 73 192 9.0 18.0 0.00 0.00 0.00 37 1007.5
20260504200847 73 227 7.0 18.0 0.00 0.00 0.00 37 1007.4
20260504200649 73 202 11.0 18.0 0.00 0.00 0.00 37 1007.4
20260504200138 73 233 7.0 11.0 0.00 0.00 0.00 37 1007.5
20260504195845 72 231 4.0 19.0 0.00 0.00 0.00 39 1007.4
20260504195642 72 189 5.0 19.0 0.00 0.00 0.00 37 1007.5
20260504195354 72 227 8.0 19.0 0.00 0.00 0.00 37 1007.5
20260504195132 72 231 9.0 17.0 0.00 0.00 0.00 37 1007.6
20260504194841 73 210 8.0 14.0 0.00 0.00 0.00 38 1007.7
20260504194700 73 252 5.0 12.0 0.00 0.00 0.00 37 1007.7
20260504194349 72 171 5.0 12.0 0.00 0.00 0.00 37 1007.7
20260504194146 72 223 6.0 15.0 0.00 0.00 0.00 38 1007.6
20260504193837 72 200 6.0 15.0 0.00 0.00 0.00 38 1007.7
20260504193636 71 216 9.0 19.0 0.00 0.00 0.00 36 1007.7
20260504193346 72 247 10.0 23.0 0.00 0.00 0.00 37 1007.8
20260504193146 72 204 9.0 23.0 0.00 0.00 0.00 38 1007.7
20260504192836 72 234 11.0 23.0 0.00 0.00 0.00 38 1007.6
20260504192634 72 223 10.0 17.0 0.00 0.00 0.00 37 1007.7
20260504192345 72 227 8.0 15.0 0.00 0.00 0.00 37 1007.7
20260504192144 72 218 10.0 20.0 0.00 0.00 0.00 36 1007.9
20260504191834 72 202 9.0 20.0 0.00 0.00 0.00 38 1007.7
20260504191633 72 235 8.0 20.0 0.00 0.00 0.00 38 1007.7
20260504191342 72 229 11.0 20.0 0.00 0.00 0.00 37 1007.8
20260504191141 72 210 5.0 16.0 0.00 0.00 0.00 38 1007.8
20260504190833 72 223 7.0 17.0 0.00 0.00 0.00 37 1008.0
20260504190652 72 206 7.0 22.0 0.00 0.00 0.00 38 1007.9
20260504190338 71 212 8.0 22.0 0.00 0.00 0.00 39 1008.0
20260504190139 71 219 10.0 22.0 0.00 0.00 0.00 37 1008.0
20260504185845 71 214 14.0 22.0 0.00 0.00 0.00 37 1008.0
20260504185648 71 187 11.0 18.0 0.00 0.00 0.00 37 1008.0
20260504185335 72 214 7.0 16.0 0.00 0.00 0.00 38 1008.2
20260504185138 72 209 4.0 16.0 0.00 0.00 0.00 37 1008.2
20260504184844 71 259 7.0 16.0 0.00 0.00 0.00 40 1008.2
20260504184645 71 189 5.0 15.0 0.00 0.00 0.00 38 1008.2
20260504184332 71 211 7.0 15.0 0.00 0.00 0.00 38 1008.3
20260504184135 71 214 6.0 15.0 0.00 0.00 0.00 39 1008.3
20260504183842 71 213 6.0 14.0 0.00 0.00 0.00 38 1008.4
20260504183644 71 281 8.0 18.0 0.00 0.00 0.00 37 1008.3
20260504183332 71 198 8.0 18.0 0.00 0.00 0.00 37 1008.4
20260504183133 71 170 8.0 19.0 0.00 0.00 0.00 38 1008.4
20260504182840 71 215 9.0 19.0 0.00 0.00 0.00 37 1008.5
20260504182658 71 220 6.0 19.0 0.00 0.00 0.00 38 1008.4
20260504182347 70 200 11.0 19.0 0.00 0.00 0.00 37 1008.6
20260504182146 71 205 10.0 18.0 0.00 0.00 0.00 38 1008.6
20260504181836 71 214 5.0 11.0 0.00 0.00 0.00 39 1008.6
20260504181656 71 183 5.0 19.0 0.00 0.00 0.00 38 1008.6
20260504181343 71 210 5.0 19.0 0.00 0.00 0.00 38 1008.7
20260504181200 70 16 7.0 19.0 0.00 0.00 0.00 38 1008.7
20260504180909 70 200 9.0 19.0 0.00 0.00 0.00 37 1008.8
20260504180645 70 269 10.0 17.0 0.00 0.00 0.00 38 1008.8
20260504180336 70 246 8.0 15.0 0.00 0.00 0.00 39 1008.7
20260504180134 70 228 8.0 15.0 0.00 0.00 0.00 38 1008.8
20260504175841 70 280 6.0 15.0 0.00 0.00 0.00 39 1008.7
20260504175642 70 212 5.0 15.0 0.00 0.00 0.00 39 1008.8
20260504175349 69 259 7.0 15.0 0.00 0.00 0.00 38 1008.7
20260504175150 69 229 8.0 15.0 0.00 0.00 0.00 37 1008.9
20260504174837 69 242 7.0 17.0 0.00 0.00 0.00 39 1008.9
20260504174638 69 210 9.0 17.0 0.00 0.00 0.00 38 1008.9
20260504174345 69 321 6.0 19.0 0.00 0.00 0.00 40 1008.9
20260504174147 69 250 7.0 19.0 0.00 0.00 0.00 38 1009.0
20260504173833 69 218 9.0 19.0 0.00 0.00 0.00 39 1009.1
20260504173636 69 204 11.0 19.0 0.00 0.00 0.00 39 1009.1
20260504173343 69 256 4.0 18.0 0.00 0.00 0.00 41 1009.2
20260504173146 69 245 9.0 18.0 0.00 0.00 0.00 39 1009.2
20260504172852 69 208 11.0 18.0 0.00 0.00 0.00 39 1009.4
20260504172633 69 218 11.0 18.0 0.00 0.00 0.00 38 1009.4
20260504172336 69 223 8.0 18.0 0.00 0.00 0.00 39 1009.4
20260504172134 69 216 5.0 18.0 0.00 0.00 0.00 40 1009.3
20260504171903 68 245 7.0 16.0 0.00 0.00 0.00 39 1009.5
20260504171640 68 266 8.0 16.0 0.00 0.00 0.00 39 1009.4
20260504171349 68 212 8.0 22.0 0.00 0.00 0.00 39 1009.5
20260504171148 68 235 9.0 22.0 0.00 0.00 0.00 38 1009.7
20260504170840 68 253 9.0 22.0 0.00 0.00 0.00 39 1009.7
20260504170638 68 256 10.0 22.0 0.00 0.00 0.00 38 1009.6
20260504170349 69 216 7.0 18.0 0.00 0.00 0.00 41 1009.7
20260504170146 69 246 6.0 18.0 0.00 0.00 0.00 41 1009.7
20260504160343 67 199 5.0 14.0 0.00 0.00 0.00 41 1010.1
20260504160142 66 202 7.0 14.0 0.00 0.00 0.00 42 1010.2
20260504151139 65 252 10.0 17.0 0.00 0.00 0.00 40 1010.9
20260504150846 64 202 9.0 17.0 0.00 0.00 0.00 44 1010.8
20260504150647 64 198 10.0 17.0 0.00 0.00 0.00 43 1010.9
20260504150334 64 216 10.0 17.0 0.00 0.00 0.00 44 1010.8
20260504150156 64 189 5.0 13.0 0.00 0.00 0.00 44 1010.9
20260504141332 63 233 4.0 12.0 0.00 0.00 0.00 45 1011.3
20260504141150 62 252 8.0 13.0 0.00 0.00 0.00 44 1011.3
20260504140901 62 193 5.0 13.0 0.00 0.00 0.00 45 1011.4
20260504140638 62 237 8.0 13.0 0.00 0.00 0.00 44 1011.4
20260504140349 62 238 8.0 13.0 0.00 0.00 0.00 44 1011.5
20260504140148 62 194 5.0 13.0 0.00 0.00 0.00 46 1011.4
20260504130638 56 182 4.0 9.0 0.00 0.00 0.00 54 1012.0
20260504130348 56 216 5.0 9.0 0.00 0.00 0.00 54 1012.0
20260504130147 56 193 5.0 9.0 0.00 0.00 0.00 54 1012.1
20260504120140 50 207 5.0 10.0 0.00 0.00 0.00 64 1012.3
20260504110649 44 167 1.0 5.0 0.00 0.00 0.00 76 1012.4
20260504110335 44 166 3.0 5.0 0.00 0.00 0.00 76 1012.4
20260504110137 43 210 2.0 4.0 0.00 0.00 0.00 76 1012.4
20260504100355 39 210 1.0 3.0 0.00 0.00 0.00 85 1012.2
20260504100137 39 210 2.0 3.0 0.00 0.00 0.00 85 1012.3
20260504090134 39 210 0.0 0.0 0.00 0.00 0.00 84 1012.0
20260504081846 41 210 0.0 1.0 0.00 0.00 0.00 79 1011.8
20260504081704 41 210 0.0 1.0 0.00 0.00 0.00 79 1011.8
20260504081352 41 210 1.0 1.0 0.00 0.00 0.00 79 1011.8
20260504081150 41 210 0.0 2.0 0.00 0.00 0.00 79 1011.8
20260504080841 41 210 0.0 2.0 0.00 0.00 0.00 79 1011.8
20260504080701 41 210 1.0 2.0 0.00 0.00 0.00 79 1011.8
20260504080351 41 210 1.0 2.0 0.00 0.00 0.00 79 1011.8
20260504080210 41 210 0.0 2.0 0.00 0.00 0.00 79 1011.8
20260504070350 45 173 1.0 4.0 0.00 0.00 0.00 70 1011.5
20260504070147 46 173 2.0 4.0 0.00 0.00 0.00 70 1011.5
20260504060144 39 341 1.0 2.0 0.00 0.00 0.00 87 1011.5
20260504050651 39 341 0.0 1.0 0.00 0.00 0.00 85 1011.3
20260504050342 39 341 0.0 1.0 0.00 0.00 0.00 84 1011.3
20260504050140 39 341 0.0 0.0 0.00 0.00 0.00 84 1011.3
20260504045850 39 341 0.0 0.0 0.00 0.00 0.00 84 1011.4
20260504045649 39 341 0.0 0.0 0.00 0.00 0.00 84 1011.4
20260504045401 39 341 0.0 0.0 0.00 0.00 0.00 83 1011.4
20260504045138 39 341 0.0 0.0 0.00 0.00 0.00 83 1011.4
20260504044850 39 341 0.0 0.0 0.00 0.00 0.00 83 1011.3
20260504044649 40 341 0.0 0.0 0.00 0.00 0.00 83 1011.3
20260504044359 40 341 0.0 0.0 0.00 0.00 0.00 83 1011.3
20260504044135 40 341 0.0 0.0 0.00 0.00 0.00 83 1011.3
20260504043903 40 341 0.0 0.0 0.00 0.00 0.00 82 1011.3
20260504043643 40 341 0.0 0.0 0.00 0.00 0.00 82 1011.3
20260504043349 40 341 0.0 0.0 0.00 0.00 0.00 82 1011.3
20260504043151 40 341 0.0 0.0 0.00 0.00 0.00 82 1011.3
20260504042837 40 341 0.0 0.0 0.00 0.00 0.00 81 1011.2
20260504042700 40 341 0.0 0.0 0.00 0.00 0.00 81 1011.2
20260504042406 40 341 0.0 1.0 0.00 0.00 0.00 81 1011.1
20260504042143 40 341 0.0 1.0 0.00 0.00 0.00 81 1011.1
20260504041835 40 341 0.0 1.0 0.00 0.00 0.00 81 1011.1
20260504041632 40 341 0.0 0.0 0.00 0.00 0.00 80 1011.0
20260504041341 41 341 0.0 0.0 0.00 0.00 0.00 80 1011.0
20260504041201 41 341 0.0 0.0 0.00 0.00 0.00 80 1010.9
20260504040849 41 341 0.0 0.0 0.00 0.00 0.00 80 1011.0
20260504040647 41 341 0.0 0.0 0.00 0.00 0.00 80 1010.9
20260504040338 41 341 0.0 0.0 0.00 0.00 0.00 80 1010.9
20260504040155 41 341 0.0 0.0 0.00 0.00 0.00 79 1010.9
20260504035840 41 341 0.0 0.0 0.00 0.00 0.00 79 1010.9
20260504035700 41 341 0.0 0.0 0.00 0.00 0.00 79 1010.9
20260504035351 41 341 0.0 0.0 0.00 0.00 0.00 79 1010.9
20260504035148 41 341 0.0 0.0 0.00 0.00 0.00 79 1010.8
20260504034839 42 341 0.0 0.0 0.00 0.00 0.00 78 1010.9
20260504034659 42 341 0.0 0.0 0.00 0.00 0.00 78 1010.9
20260504034346 42 341 0.0 0.0 0.00 0.00 0.00 78 1010.9
20260504034148 42 341 0.0 0.0 0.00 0.00 0.00 77 1010.9
20260504033855 42 341 0.0 0.0 0.00 0.00 0.00 77 1010.8
20260504033637 42 341 0.0 1.0 0.00 0.00 0.00 77 1010.8
20260504033345 42 341 0.0 1.0 0.00 0.00 0.00 77 1010.9
20260504033146 42 341 0.0 1.0 0.00 0.00 0.00 76 1010.9
20260504032833 42 341 0.0 1.0 0.00 0.00 0.00 76 1011.0
20260504032634 42 341 0.0 0.0 0.00 0.00 0.00 76 1010.9
20260504032401 42 341 0.0 1.0 0.00 0.00 0.00 75 1011.0
20260504032141 43 341 0.0 1.0 0.00 0.00 0.00 76 1011.0
20260504031848 43 341 0.0 1.0 0.00 0.00 0.00 75 1011.0
20260504031645 43 341 0.0 1.0 0.00 0.00 0.00 74 1010.9
20260504031335 43 341 0.0 1.0 0.00 0.00 0.00 74 1010.9
20260504031133 43 341 0.0 1.0 0.00 0.00 0.00 74 1010.9
20260504030844 43 341 0.0 0.0 0.00 0.00 0.00 73 1010.9
20260504030642 43 341 0.0 0.0 0.00 0.00 0.00 73 1010.9
20260504030353 43 341 0.0 0.0 0.00 0.00 0.00 73 1010.9
20260504030150 43 341 0.0 1.0 0.00 0.00 0.00 72 1010.9
20260504025841 44 341 0.0 1.0 0.00 0.00 0.00 72 1010.9
20260504025638 44 341 0.0 1.0 0.00 0.00 0.00 72 1010.9
20260504025349 44 341 0.0 1.0 0.00 0.00 0.00 72 1010.9
20260504025147 44 341 0.0 0.0 0.00 0.00 0.00 72 1010.9
20260504024858 44 341 0.0 0.0 0.00 0.00 0.00 71 1010.9
20260504024635 44 341 0.0 1.0 0.00 0.00 0.00 71 1010.9
20260504024345 44 341 0.0 1.0 0.00 0.00 0.00 71 1010.9
20260504024143 44 341 0.0 1.0 0.00 0.00 0.00 71 1010.9
20260504023854 44 341 0.0 1.0 0.00 0.00 0.00 70 1010.9
20260504023650 44 341 0.0 1.0 0.00 0.00 0.00 71 1010.9
20260504023337 45 341 0.0 1.0 0.00 0.00 0.00 70 1010.9
20260504023139 45 341 0.0 0.0 0.00 0.00 0.00 70 1010.9
20260504022847 45 341 0.0 0.0 0.00 0.00 0.00 70 1010.9
20260504022648 45 341 0.0 0.0 0.00 0.00 0.00 70 1010.9
20260504022335 45 341 0.0 0.0 0.00 0.00 0.00 69 1010.9
20260504022136 45 341 0.0 0.0 0.00 0.00 0.00 69 1010.8
20260504021843 45 341 0.0 0.0 0.00 0.00 0.00 68 1010.8
20260504021707 45 341 0.0 0.0 0.00 0.00 0.00 68 1010.8
20260504021350 45 341 0.0 0.0 0.00 0.00 0.00 68 1010.9
20260504021132 46 341 0.0 0.0 0.00 0.00 0.00 68 1010.9
20260504020900 46 341 0.0 0.0 0.00 0.00 0.00 67 1010.8
20260504020656 46 341 0.0 1.0 0.00 0.00 0.00 67 1010.9
20260504020407 46 341 0.0 1.0 0.00 0.00 0.00 67 1010.9
20260504020143 46 341 0.0 1.0 0.00 0.00 0.00 67 1010.9
20260504015854 46 341 0.0 1.0 0.00 0.00 0.00 67 1010.9
20260504015633 46 341 0.0 0.0 0.00 0.00 0.00 66 1010.8
20260504015344 47 341 0.0 0.0 0.00 0.00 0.00 65 1010.8
20260504015142 47 341 0.0 0.0 0.00 0.00 0.00 65 1010.8
20260504014851 47 341 0.0 0.0 0.00 0.00 0.00 65 1010.7
20260504014648 47 341 0.0 1.0 0.00 0.00 0.00 65 1010.7
20260504014339 47 341 0.0 2.0 0.00 0.00 0.00 64 1010.7
20260504014138 47 341 0.0 2.0 0.00 0.00 0.00 64 1010.7
20260504013849 47 341 1.0 2.0 0.00 0.00 0.00 63 1010.7
20260504013647 48 341 1.0 2.0 0.00 0.00 0.00 63 1010.7
20260504013337 48 341 0.0 1.0 0.00 0.00 0.00 62 1010.6
20260504013135 48 341 0.0 1.0 0.00 0.00 0.00 61 1010.6
20260504012845 48 341 0.0 1.0 0.00 0.00 0.00 61 1010.5
20260504012643 48 341 0.0 2.0 0.00 0.00 0.00 61 1010.6
20260504012409 48 341 1.0 2.0 0.00 0.00 0.00 61 1010.6
20260504012211 49 341 0.0 2.0 0.00 0.00 0.00 60 1010.6
20260504011858 49 341 2.0 2.0 0.00 0.00 0.00 59 1010.5
20260504011638 49 341 1.0 2.0 0.00 0.00 0.00 58 1010.5
20260504011345 49 341 1.0 2.0 0.00 0.00 0.00 58 1010.5
20260504011147 50 341 1.0 1.0 0.00 0.00 0.00 58 1010.5